GW0410 Weather Reports


time (UTC)temp
C
wind
direction
speed
KPH
gust
KPH
rain 1hr
cm
rain 24hr
cm
rain mn
cm
humidity
%
barometer
mb
20260901212023 12 0.0 0.0 0.00 0.00 0.00 89 1021.7
20260901211206 12 0.0 0.0 0.00 0.00 0.00 88 1021.7
20260901210048 12 0.0 0.0 0.00 0.00 0.00 88 1021.7
20260901205021 13 0.0 0.0 0.00 0.00 0.00 87 1021.8
20260901204021 13 0.0 0.0 0.00 0.00 0.00 87 1021.4
20260901203031 13 0.0 0.0 0.00 0.00 0.00 86 1021.8
20260901202028 13 0.0 0.0 0.00 0.00 0.00 86 1021.8
20260901201054 14 0.0 0.0 0.00 0.00 0.00 85 1021.4
20260901200040 14 0.0 0.0 0.00 0.00 0.00 84 1021.0
20260901195041 14 0.0 0.0 0.00 0.00 0.00 82 1021.0
20260901194056 15 0.0 0.0 0.00 0.00 0.00 81 1021.4
20260901193040 15 0.0 0.0 0.00 0.00 0.00 80 1021.4
20260901192028 15 0.0 0.0 0.00 0.00 0.00 79 1021.4
20260901191032 15 0.0 0.0 0.00 0.00 0.00 76 1021.4
20260901190044 16 0.0 0.0 0.00 0.00 0.00 75 1021.0
20260901185029 16 0.0 0.0 0.00 0.00 0.00 74 1021.0
20260901184021 16 0.0 0.0 0.00 0.00 0.00 73 1020.8
20260901183056 16 0.0 0.0 0.00 0.00 0.00 72 1020.9
20260901182026 17 0.0 0.0 0.00 0.00 0.00 72 1021.0
20260901181035 17 0.0 0.0 0.00 0.00 0.00 71 1020.6
20260901180033 17 0.0 0.0 0.00 0.00 0.00 69 1020.2
20260901175053 18 0.0 0.0 0.00 0.00 0.00 67 1020.3
20260901174041 18 0.0 0.0 0.00 0.00 0.00 65 1020.3
20260901173029 19 0.0 0.0 0.00 0.00 0.00 64 1020.2
20260901172021 19 0.0 0.0 0.00 0.00 0.00 63 1020.2
20260901171021 20 0.0 0.0 0.00 0.00 0.00 61 1019.9
20260901170021 20 0.0 0.0 0.00 0.00 0.00 60 1020.2
20260901165022 20 0.0 0.0 0.00 0.00 0.00 59 1020.3
20260901164032 21 0.0 0.0 0.00 0.00 0.00 58 1020.3
20260901163043 21 0.0 0.0 0.00 0.00 0.00 58 1020.0
20260901162033 22 241 0.0 0.0 0.00 0.00 0.00 56 1020.0
20260901161040 22 151 0.0 0.0 0.00 0.00 0.00 53 1020.0
20260901160029 22 0.0 0.0 0.00 0.00 0.00 52 1020.5
20260901155045 23 0.0 0.0 0.00 0.00 0.00 52 1020.5
20260901154021 24 330 0.0 0.0 0.00 0.00 0.00 50 1020.6
20260901153031 25 57 0.0 0.0 0.00 0.00 0.00 47 1020.3
20260901152028 27 323 1.6 4.8 0.00 0.00 0.00 45 1020.4
20260901151035 27 332 0.0 0.0 0.00 0.00 0.00 45 1020.7
20260901150046 27 18 0.0 1.6 0.00 0.00 0.00 44 1020.4
20260901145022 27 294 0.0 3.2 0.00 0.00 0.00 45 1020.4
20260901144021 26 0.0 0.0 0.00 0.00 0.00 45 1020.7
20260901143046 26 290 0.0 0.0 0.00 0.00 0.00 47 1020.3
20260901142023 25 4 0.0 4.8 0.00 0.00 0.00 48 1020.4
20260901141041 25 284 0.0 0.0 0.00 0.00 0.00 48 1020.7
20260901140056 25 326 0.0 3.2 0.00 0.00 0.00 48 1020.6
20260901135022 24 339 0.0 3.2 0.00 0.00 0.00 51 1020.6
20260901134020 23 320 0.0 0.0 0.00 0.00 0.00 51 1020.6
20260901133022 25 305 0.0 1.6 0.00 0.00 0.00 50 1020.3
20260901132044 26 338 0.0 4.8 0.00 0.00 0.00 48 1020.3
20260901131030 25 339 0.0 1.6 0.00 0.00 0.00 50 1020.3
20260901130041 24 315 0.0 1.6 0.00 0.00 0.00 51 1020.6
20260901125023 22 331 0.0 0.0 0.00 0.00 0.00 56 1020.5
20260901124022 22 294 0.0 0.0 0.00 0.00 0.00 55 1020.5
20260901123044 23 313 0.0 1.6 0.00 0.00 0.00 54 1020.6
20260901122022 25 311 0.0 1.6 0.00 0.00 0.00 53 1020.6
20260901121021 23 335 0.0 3.2 0.00 0.00 0.00 52 1020.6
20260901120042 24 329 0.0 1.6 0.00 0.00 0.00 53 1020.6
20260901115050 23 283 1.6 4.8 0.00 0.00 0.00 52 1020.6
20260901114022 23 282 1.6 6.4 0.00 0.00 0.00 55 1020.6
20260901113049 22 290 0.0 0.0 0.00 0.00 0.00 58 1020.6
20260901112033 23 0.0 0.0 0.00 0.00 0.00 58 1020.6
20260901111029 24 288 0.0 1.6 0.00 0.00 0.00 55 1021.0
20260901110055 23 291 0.0 0.0 0.00 0.00 0.00 57 1021.0
20260901105036 23 266 3.2 6.4 0.00 0.00 0.00 55 1021.0
20260901104021 22 262 1.6 8.0 0.00 0.00 0.00 58 1020.9
20260901103024 22 278 1.6 6.4 0.00 0.00 0.00 58 1021.2
20260901102027 22 285 1.6 6.4 0.00 0.00 0.00 59 1021.2
20260901101026 22 268 1.6 4.8 0.00 0.00 0.00 60 1020.9
20260901100534 22 288 0.0 0.0 0.00 0.00 0.00 61 1020.9
20260901095026 23 332 0.0 3.2 0.00 0.00 0.00 61 1021.0
20260901094019 22 341 0.0 0.0 0.00 0.00 0.00 61 1020.9
20260901093102 21 314 0.0 0.0 0.00 0.00 0.00 62 1020.9
20260901092100 21 322 0.0 3.2 0.00 0.00 0.00 64 1020.9
20260901091020 22 5 0.0 3.2 0.00 0.00 0.00 62 1020.9
20260901085031 24 165 0.0 1.6 0.00 0.00 0.00 60 1021.0
20260901084024 23 293 0.0 1.6 0.00 0.00 0.00 57 1021.0
20260901083035 23 302 3.2 6.4 0.00 0.00 0.00 58 1020.7
20260901082028 23 315 0.0 4.8 0.00 0.00 0.00 59 1020.7
20260901081027 23 352 1.6 4.8 0.00 0.00 0.00 59 1021.1
20260901080053 22 341 0.0 3.2 0.00 0.00 0.00 60 1021.0
20260901075021 22 291 1.6 4.8 0.00 0.00 0.00 62 1021.0
20260901074020 21 326 0.0 1.6 0.00 0.00 0.00 63 1020.6
20260901073024 21 305 0.0 0.0 0.00 0.00 0.00 66 1020.6
20260901072025 21 288 0.0 1.6 0.00 0.00 0.00 65 1020.6
20260901071019 20 258 0.0 6.4 0.00 0.00 0.00 68 1020.6
20260901070037 21 327 0.0 0.0 0.00 0.00 0.00 68 1020.3
20260901065038 21 295 0.0 0.0 0.00 0.00 0.00 66 1020.3
20260901064048 21 328 0.0 0.0 0.00 0.00 0.00 68 1020.3
20260901063031 20 287 0.0 1.6 0.00 0.00 0.00 70 1019.9
20260901062053 18 320 0.0 1.6 0.00 0.00 0.00 74 1019.9
20260901061019 18 293 0.0 0.0 0.00 0.00 0.00 77 1019.8
20260901060039 17 221 0.0 0.0 0.00 0.00 0.00 80 1019.8
20260901055100 16 255 0.0 4.8 0.00 0.00 0.00 81 1019.8
20260901054027 16 261 0.0 1.6 0.00 0.00 0.00 81 1019.8
20260901053023 16 285 0.0 0.0 0.00 0.00 0.00 82 1019.8
20260901052023 15 269 0.0 1.6 0.00 0.00 0.00 83 1019.8
20260901051029 15 319 0.0 0.0 0.00 0.00 0.00 85 1019.5
20260901050028 13 0.0 0.0 0.00 0.00 0.00 89 1019.1
20260901045041 13 0.0 0.0 0.00 0.00 0.00 90 1019.1
20260901044036 13 0.0 0.0 0.00 0.00 0.00 90 1019.1
20260901043036 13 0.0 0.0 0.00 0.00 0.00 90 1019.1
20260901042036 13 0.0 0.0 0.00 0.00 0.00 90 1019.1
20260901041124 13 0.0 0.0 0.00 0.00 0.00 88 1019.1
20260901040024 13 0.0 0.0 0.00 0.00 0.00 86 1019.2
20260901035023 14 0.0 0.0 0.00 0.00 0.00 85 1019.3
20260901034026 15 0.0 0.0 0.00 0.00 0.00 84 1018.9
20260901033028 15 262 0.0 3.2 0.00 0.00 0.00 83 1018.9
20260901032104 15 266 1.6 3.2 0.00 0.00 0.00 83 1019.0
20260901031021 15 291 0.0 1.6 0.00 0.00 0.00 86 1019.0
20260901030055 15 258 0.0 0.0 0.00 0.00 0.00 86 1019.0
20260901025059 14 0.0 0.0 0.00 0.00 0.00 89 1019.0
20260901024028 14 244 0.0 0.0 0.00 0.00 0.00 89 1018.7
20260901023026 15 0.0 0.0 0.00 0.00 0.00 89 1019.1
20260901022025 15 0.0 0.0 0.00 0.00 0.00 88 1019.1
20260901021023 15 0.0 0.0 0.00 0.00 0.00 87 1018.8
20260901020026 15 0.0 0.0 0.00 0.00 0.00 87 1018.4
20260901015025 15 0.0 0.0 0.00 0.00 0.00 86 1018.4
20260901014044 15 287 0.0 0.0 0.00 0.00 0.00 86 1018.4
20260901013026 15 0.0 0.0 0.00 0.00 0.00 85 1018.8
20260901012021 15 244 0.0 0.0 0.00 0.00 0.00 85 1018.6
20260901011025 15 252 1.6 4.8 0.00 0.00 0.00 86 1018.3
20260901010030 15 281 0.0 0.0 0.00 0.00 0.00 86 1018.3
20260901005027 15 0.0 0.0 0.00 0.00 0.00 86 1018.3
20260901004027 15 239 1.6 4.8 0.00 0.00 0.00 87 1018.3
20260901003035 15 281 0.0 1.6 0.00 0.00 0.00 86 1018.3
20260901002025 15 262 0.0 0.0 0.00 0.00 0.00 88 1018.2
20260901001019 15 0.0 0.0 0.00 0.00 0.00 88 1018.2
20260901000023 15 215 0.0 3.2 0.00 0.00 0.00 88 1018.2
20260831235101 15 0.0 0.0 0.00 0.00 0.00 86 1018.1
20260831234031 15 0.0 0.0 0.00 0.00 0.00 85 1018.5
20260831233026 16 0.0 0.0 0.00 0.00 0.00 84 1018.5
20260831232022 16 0.0 0.0 0.00 0.00 0.00 84 1018.5
20260831231043 16 248 0.0 0.0 0.00 0.00 0.00 83 1018.8
20260831230034 16 243 0.0 0.0 0.00 0.00 0.00 84 1018.8
20260831225023 16 0.0 0.0 0.00 0.00 0.00 84 1018.8
20260831224021 16 0.0 0.0 0.00 0.00 0.00 84 1018.8
20260831223031 16 249 0.0 0.0 0.00 0.00 0.00 84 1019.2
20260831222022 16 0.0 0.0 0.00 0.00 0.00 85 1019.1
20260831221034 16 0.0 0.0 0.00 0.00 0.00 84 1018.8
20260831220053 16 0.0 0.0 0.00 0.00 0.00 84 1018.5
20260831215023 16 0.0 0.0 0.00 0.00 0.00 84 1018.6
20260831214020 16 0.0 0.0 0.00 0.00 0.00 83 1018.9
20260831213033 16 0.0 0.0 0.00 0.00 0.00 81 1018.5